When you browse on this site, cookies collect data to enhance your experience and personalize the content and advertising you see.
Visit our Privacy Policy to learn more. By continuing to use the site, you agree to this use of cookies and data.
  • In Latvia
  • List of Countries
  • For 7 days
  • Water Temperature
  • Weather Map
  • Weather Widgets
  • user-avatar
    Login

    Hourly Weather Vernier

    Today, 17 September, Tuesday

    Time Temperature Precipitation Wind Pressure Humidity
    00:00 +18°C° 0 mm 0 mps 728 mmHg 73%
    01:00 +18°C° 0 mm 0 mps 728 mmHg 75%
    02:00 +18°C° 0 mm 0 mps 727 mmHg 76%
    03:00 +18°C° 0 mm 0 mps 727 mmHg 78%
    04:00 +18°C° 0 mm 0 mps 727 mmHg 79%
    05:00 +18°C° 0 mm 0 mps 727 mmHg 80%
    06:00 +18°C° 0 mm 0 mps 728 mmHg 81%
    07:00 +21°C° 0 mm 0 mps 728 mmHg 73%
    08:00 +23°C° 0 mm 0 mps 728 mmHg 66%
    09:00 +25°C° 0 mm 0 mps 728 mmHg 58%
    10:00 +28°C° 0 mm 1 mps 727 mmHg 53%
    11:00 +28°C° 0 mm 1 mps 727 mmHg 49%
    12:00 +29°C° 0 mm 1 mps 727 mmHg 42%
    13:00 +29°C° 0 mm 1 mps 727 mmHg 43%
    14:00 +28°C° 0 mm 2 mps 727 mmHg 44%
    15:00 +28°C° 0 mm 2 mps 726 mmHg 45%
    16:00 +25°C° 0 mm 2 mps 726 mmHg 55%
    17:00 +23°C° 0 mm 2 mps 726 mmHg 66%
    18:00 +20°C° 0 mm 2 mps 726 mmHg 76%
    19:00 +19°C° 0 mm 2 mps 726 mmHg 78%
    20:00 +18°C° 0 mm 2 mps 726 mmHg 79%
    21:00 +18°C° 0 mm 2 mps 726 mmHg 81%
    22:00 +17°C° 0 mm 2 mps 726 mmHg 84%
    23:00 +17°C° 0 mm 2 mps 726 mmHg 88%

    Tomorrow, 18 September, Wednesday

    Time Temperature Precipitation Wind Pressure Humidity
    00:00 +16°C° 0 mm 2 mps 726 mmHg 91%
    01:00 +16°C° 0 mm 2 mps 726 mmHg 91%
    02:00 +15°C° 0 mm 2 mps 726 mmHg 92%
    03:00 +15°C° 0 mm 2 mps 726 mmHg 92%
    04:00 +15°C° 0 mm 2 mps 726 mmHg 91%
    05:00 +15°C° 0 mm 2 mps 726 mmHg 90%
    06:00 +13°C° 0 mm 3 mps 726 mmHg 88%
    07:00 +14°C° 0 mm 3 mps 726 mmHg 83%
    08:00 +17°C° 0 mm 2 mps 726 mmHg 77%
    09:00 +18°C° 0 mm 2 mps 727 mmHg 71%
    10:00 +19°C° 0 mm 3 mps 726 mmHg 68%
    11:00 +20°C° 0 mm 3 mps 726 mmHg 64%
    12:00 +21°C° 0 mm 3 mps 726 mmHg 61%
    13:00 +21°C° 0 mm 3 mps 726 mmHg 61%
    14:00 +21°C° 0 mm 3 mps 726 mmHg 61%
    15:00 +21°C° 0 mm 3 mps 726 mmHg 61%
    16:00 +19°C° 0 mm 3 mps 726 mmHg 65%
    17:00 +17°C° 0 mm 3 mps 726 mmHg 70%
    18:00 +14°C° 0 mm 3 mps 726 mmHg 74%
    19:00 +14°C° 0 mm 3 mps 727 mmHg 75%
    20:00 +13°C° 0 mm 3 mps 727 mmHg 76%
    21:00 +12°C° 0 mm 3 mps 728 mmHg 77%
    22:00 +11°C° 0 mm 3 mps 728 mmHg 79%
    23:00 +12°C° 0 mm 2 mps 728 mmHg 82%

    Day after tomorrow, 19 September, Thursday

    Time Temperature Precipitation Wind Pressure Humidity
    00:00 +10°C° 0 mm 2 mps 728 mmHg 84%
    01:00 +10°C° 0 mm 2 mps 728 mmHg 85%
    02:00 +9°C° 0 mm 2 mps 727 mmHg 87%
    03:00 +9°C° 0 mm 2 mps 727 mmHg 88%
    04:00 +9°C° 0 mm 2 mps 728 mmHg 88%
    05:00 +9°C° 0 mm 2 mps 728 mmHg 87%
    06:00 +9°C° 0 mm 2 mps 728 mmHg 86%
    07:00 +12°C° 0 mm 2 mps 728 mmHg 80%
    08:00 +13°C° 0 mm 2 mps 728 mmHg 74%
    09:00 +14°C° 0 mm 3 mps 729 mmHg 68%
    10:00 +17°C° 0 mm 3 mps 729 mmHg 63%
    11:00 +18°C° 0 mm 3 mps 729 mmHg 59%
    12:00 +19°C° 0 mm 3 mps 729 mmHg 55%
    13:00 +19°C° 0 mm 3 mps 728 mmHg 54%
    14:00 +19°C° 0 mm 3 mps 728 mmHg 53%
    15:00 +19°C° 0 mm 3 mps 728 mmHg 53%
    16:00 +17°C° 0 mm 3 mps 728 mmHg 59%
    17:00 +16°C° 0 mm 3 mps 728 mmHg 65%
    18:00 +14°C° 0 mm 2 mps 728 mmHg 71%
    19:00 +13°C° 0 mm 2 mps 729 mmHg 75%
    20:00 +12°C° 0 mm 2 mps 729 mmHg 78%
    21:00 +12°C° 0 mm 2 mps 729 mmHg 81%
    22:00 +10°C° 0 mm 2 mps 729 mmHg 84%
    23:00 +10°C° 0 mm 2 mps 729 mmHg 88%

    20 September, Friday

    Time Temperature Precipitation Wind Pressure Humidity
    00:00 +9°C° 0 mm 2 mps 729 mmHg 91%
    01:00 +9°C° 0 mm 2 mps 729 mmHg 92%
    02:00 +9°C° 0 mm 2 mps 729 mmHg 92%
    03:00 +8°C° 0 mm 2 mps 729 mmHg 93%
    04:00 +9°C° 0 mm 2 mps 728 mmHg 92%
    05:00 +9°C° 0 mm 2 mps 728 mmHg 92%
    06:00 +9°C° 0 mm 2 mps 728 mmHg 91%
    07:00 +12°C° 0 mm 2 mps 728 mmHg 83%
    08:00 +15°C° 0 mm 2 mps 729 mmHg 75%
    09:00 +18°C° 0 mm 1 mps 729 mmHg 68%
    10:00 +20°C° 0 mm 1 mps 728 mmHg 64%
    11:00 +22°C° 0 mm 1 mps 728 mmHg 60%
    12:00 +23°C° 0 mm 1 mps 728 mmHg 56%
    13:00 +23°C° 0 mm 2 mps 728 mmHg 57%
    14:00 +23°C° 0 mm 2 mps 727 mmHg 59%
    15:00 +23°C° 0 mm 2 mps 727 mmHg 60%
    16:00 +20°C° 0 mm 2 mps 727 mmHg 69%
    17:00 +18°C° 0 mm 2 mps 727 mmHg 78%
    18:00 +16°C° 0 mm 2 mps 727 mmHg 87%
    19:00 +15°C° 0 mm 1 mps 727 mmHg 86%
    20:00 +15°C° 0 mm 1 mps 727 mmHg 85%
    21:00 +14°C° 0 mm 1 mps 728 mmHg 84%
    22:00 +14°C° 0 mm 1 mps 728 mmHg 85%
    23:00 +14°C° 0 mm 1 mps 727 mmHg 85%

    21 September, Saturday

    Time Temperature Precipitation Wind Pressure Humidity
    00:00 +13°C° 0 mm 1 mps 727 mmHg 86%
    01:00 +13°C° 0 mm 1 mps 727 mmHg 87%
    02:00 +13°C° 0 mm 1 mps 727 mmHg 88%
    03:00 +13°C° 0 mm 1 mps 727 mmHg 90%
    04:00 +13°C° 0 mm 1 mps 727 mmHg 89%
    05:00 +14°C° 0 mm 1 mps 727 mmHg 89%
    06:00 +14°C° 0 mm 1 mps 727 mmHg 89%
    07:00 +16°C° 0 mm 1 mps 727 mmHg 81%
    08:00 +20°C° 0 mm 1 mps 727 mmHg 73%
    09:00 +22°C° 0 mm 1 mps 727 mmHg 66%
    10:00 +23°C° 0 mm 1 mps 727 mmHg 63%
    11:00 +24°C° 0 mm 1 mps 727 mmHg 60%
    12:00 +25°C° 0 mm 1 mps 727 mmHg 58%
    13:00 +24°C° 0 mm 1 mps 726 mmHg 62%
    14:00 +24°C° 0 mm 1 mps 726 mmHg 67%
    15:00 +23°C° 0 mm 1 mps 726 mmHg 71%
    16:00 +22°C° 0 mm 1 mps 726 mmHg 75%
    17:00 +20°C° 0 mm 1 mps 725 mmHg 80%
    18:00 +19°C° 0 mm 1 mps 725 mmHg 84%
    19:00 +19°C° 0 mm 1 mps 725 mmHg 81%
    20:00 +19°C° 0 mm 1 mps 726 mmHg 79%
    21:00 +19°C° 0 mm 1 mps 726 mmHg 77%
    22:00 +19°C° 0 mm 1 mps 726 mmHg 78%
    23:00 +18°C° 0 mm 1 mps 726 mmHg 79%

    22 September, Sunday

    Time Temperature Precipitation Wind Pressure Humidity
    00:00 +18°C° 0 mm 1 mps 725 mmHg 80%
    01:00 +18°C° 0 mm 1 mps 725 mmHg 81%
    02:00 +16°C° 0 mm 1 mps 725 mmHg 82%
    03:00 +16°C° 0 mm 1 mps 725 mmHg 83%
    04:00 +16°C° 0.1 mm 1 mps 725 mmHg 84%
    05:00 +16°C° 0.1 mm 1 mps 725 mmHg 84%
    06:00 +16°C° 0.1 mm 1 mps 725 mmHg 85%
    07:00 +18°C° 0 mm 1 mps 725 mmHg 84%
    08:00 +19°C° 0 mm 1 mps 725 mmHg 83%
    09:00 +20°C° 0 mm 1 mps 725 mmHg 81%
    10:00 +20°C° 0.1 mm 1 mps 725 mmHg 80%
    11:00 +21°C° 0.1 mm 1 mps 725 mmHg 78%
    12:00 +21°C° 0.1 mm 1 mps 725 mmHg 77%
    13:00 +21°C° 0.3 mm 1 mps 724 mmHg 81%
    14:00 +21°C° 0.3 mm 1 mps 724 mmHg 86%
    15:00 +20°C° 0.3 mm 1 mps 724 mmHg 91%
    16:00 +20°C° 0.5 mm 1 mps 724 mmHg 92%
    17:00 +19°C° 0.5 mm 1 mps 724 mmHg 94%
    18:00 +16°C° 0.5 mm 0 mps 723 mmHg 96%
    19:00 +18°C° 3.3 mm 1 mps 724 mmHg 97%
    20:00 +18°C° 3.3 mm 1 mps 724 mmHg 98%
    21:00 +18°C° 3.3 mm 1 mps 725 mmHg 99%
    22:00 +18°C° 2.5 mm 1 mps 725 mmHg 98%
    23:00 +16°C° 2.5 mm 1 mps 725 mmHg 98%
    Show more